sat.trackr.live / text

‹ back to catalog

QPS-SAR-8 (AMATERU-IV)

NORAD 60542 · 2024-149CC

PAYLOAD ACTIVE UNKNOWN

§ Identity

Operator
Country
JPN
Launch date
2024-08-16
Launch site
AFWTR
Launch vehicle
Mass (kg)
RCS (m²)

External: N2YO · Heavens-Above · Gunter

§ Orbital elements

Epoch: 2026-09-22T16:36:34.290720Z

Period
95.68 min
Inclination
97.6611°
Eccentricity
0.0004328
Mean motion
15.04938389 rev/d
Perigee alt
548.7 km
Apogee alt
554.7 km
Semi-major
6,929.8 km
B*
2.5915e-4
RAAN
344.0445°
Arg perigee
128.2543°
Mean anomaly
231.9074°
Rev number
11,493

§ Raw data

QPS-SAR-8 (AMATERU-IV)1 60542U 24149CC  26265.69206355  .00003610  00000+0  25915-3 0  99982 60542  97.6611 344.0445 0004328 128.2543 231.9074 15.04938389114939

JSON: /api/v1/satellites/60542 · /tle

For live sub-satellite position, see the globe view (requires WebGL).

§ Visibility from observer

Set your observer location to see the next 7 days of passes ≥ 10°. The values pass through the URL so the page stays shareable.

No JS? Fill the form by hand. The geolocation button needs JavaScript.